This is the latest recevied weather packets stored in our database for station/object W5DNT. If no packets are shown the sender has not sent any weather packets the latest 10 day(s).
| Time | Temp. | Humidity | Pressure | Rain* | Wind** | Luminosity | Snow |
|---|---|---|---|---|---|---|---|
| 1788047153 | 36.11° C | 37% | 1012.4 hPa | 0 mm | - | - | - |
| 1788046253 | 36.11° C | 36% | 1012.3 hPa | 0 mm | - | - | - |
| 1788045357 | 36.67° C | 36% | 1012.4 hPa | 0 mm | - | - | - |
| 1788044454 | 36.67° C | 36% | 1012.4 hPa | 0 mm | - | - | - |
| 1788043555 | 36.67° C | 35% | 1012.3 hPa | 0 mm | - | - | - |
| 1788042650 | 36.67° C | 35% | 1012.4 hPa | 0 mm | - | - | - |
| 1788041749 | 37.22° C | 34% | 1012.4 hPa | 0 mm | - | - | - |
| 1788040847 | 37.22° C | 34% | 1012.6 hPa | 0 mm | - | - | - |
| 1788039946 | 36.67° C | 36% | 1012.7 hPa | 0 mm | - | - | - |
| 1788039043 | 36.67° C | 36% | 1012.9 hPa | 0 mm | - | - | - |
| 1788038141 | 37.22° C | 35% | 1013.1 hPa | 0 mm | - | - | - |
| 1788037238 | 37.22° C | 36% | 1013.3 hPa | 0 mm | - | - | - |
| 1788036337 | 36.67° C | 35% | 1013.5 hPa | 0 mm | - | - | - |
| 1788035441 | 36.67° C | 35% | 1013.6 hPa | 0 mm | - | - | - |
| 1788034549 | 37.22° C | 35% | 1013.8 hPa | 0 mm | - | - | - |
| 1788033632 | 37.22° C | 35% | 1014.1 hPa | 0 mm | - | - | - |
| 1788032725 | 37.22° C | 35% | 1014.4 hPa | 0 mm | - | - | - |
| 1788031837 | 37.22° C | 35% | 1014.8 hPa | 0 mm | - | - | - |
| 1788030919 | 36.67° C | 36% | 1014.9 hPa | 0 mm | - | - | - |
| 1788030018 | 36.67° C | 38% | 1015 hPa | 0 mm | - | - | - |
| 1788029115 | 36.67° C | 36% | 1015.3 hPa | 0 mm | - | - | - |
| 1788028212 | 36.11° C | 39% | 1015.4 hPa | 0 mm | - | - | - |
| 1788027311 | 35.56° C | 40% | 1015.7 hPa | 0 mm | - | - | - |
| 1788026407 | 35.56° C | 44% | 1015.7 hPa | 0 mm | - | - | - |
| 1788025504 | 35° C | 46% | 1015.9 hPa | 0 mm | - | - | - |
* Rain latest hour (hover to see other rain measurements)
** Current wind speed in m/s (hover to see current wind gust speed)